Powrót do katalogu

THORAD DELTA 1 DEB

LostLEO
NORAD 42611·DEBRIS·🇺🇸 United States

Wystrzelony Nov 15, 1974 z Vandenberg Space Force Base

Loading…

Następne Przeloty (najbliższe 24 godziny)

TLE

NieaktualneSource: Space-Track

Epoka: Mar 24, 2024, 05:55 UTC

1 42611U 74089GC  24084.24709112  .00000032  00000-0  60830-3 0  9991
2 42611 101.0880 244.9572 0132711 281.6470  76.9721 12.26882165866272

Śledź THORAD DELTA 1 DEB w czasie rzeczywistym z AllMySat

Download on the App Store